When you browse on this site, cookies collect data to enhance your experience and personalize the content and advertising you see.
Visit our Privacy Policy to learn more. By continuing to use the site, you agree to this use of cookies and data.
  • In France
  • List of Countries
  • For 7 days
  • Water Temperature
  • Satellite Maps
  • Weather Map
  • Weather Widgets
  • user-avatar
    Login

    Hourly Weather Innsbruck

    Today, 26 June, Wednesday

    Time Temperature Precipitation Wind Pressure Humidity
    00:00 +12°C° 0 mm 1 mps 604 mmHg 72%
    01:00 +12°C° 0 mm 1 mps 604 mmHg 70%
    02:00 +12°C° 0 mm 1 mps 604 mmHg 67%
    03:00 +12°C° 0 mm 1 mps 604 mmHg 65%
    04:00 +11°C° 0 mm 1 mps 604 mmHg 63%
    05:00 +14°C° 0 mm 1 mps 605 mmHg 57%
    06:00 +18°C° 0 mm 1 mps 606 mmHg 52%
    07:00 +21°C° 0 mm 1 mps 608 mmHg 44%
    08:00 +23°C° 0 mm 1 mps 609 mmHg 39%
    09:00 +24°C° 0 mm 1 mps 609 mmHg 33%
    10:00 +26°C° 0 mm 2 mps 610 mmHg 27%
    11:00 +27°C° 0 mm 2 mps 610 mmHg 26%
    12:00 +27°C° 0 mm 2 mps 611 mmHg 25%
    13:00 +28°C° 0 mm 2 mps 611 mmHg 24%
    14:00 +28°C° 0 mm 2 mps 611 mmHg 25%
    15:00 +27°C° 0 mm 3 mps 610 mmHg 27%
    16:00 +27°C° 0 mm 3 mps 610 mmHg 28%
    17:00 +25°C° 0 mm 2 mps 609 mmHg 39%
    18:00 +24°C° 0 mm 2 mps 609 mmHg 49%
    19:00 +22°C° 0 mm 1 mps 608 mmHg 59%
    20:00 +20°C° 0 mm 1 mps 607 mmHg 63%
    21:00 +16°C° 0 mm 1 mps 606 mmHg 67%
    22:00 +14°C° 0 mm 1 mps 605 mmHg 72%
    23:00 +14°C° 0 mm 1 mps 605 mmHg 71%

    Tomorrow, 27 June, Thursday

    Time Temperature Precipitation Wind Pressure Humidity
    00:00 +13°C° 0 mm 1 mps 605 mmHg 70%
    01:00 +13°C° 0 mm 1 mps 605 mmHg 69%
    02:00 +13°C° 0 mm 1 mps 605 mmHg 68%
    03:00 +13°C° 0 mm 1 mps 604 mmHg 66%
    04:00 +12°C° 0 mm 1 mps 604 mmHg 65%
    05:00 +15°C° 0 mm 1 mps 605 mmHg 61%
    06:00 +18°C° 0 mm 1 mps 606 mmHg 56%
    07:00 +20°C° 0 mm 1 mps 607 mmHg 51%
    08:00 +22°C° 0 mm 1 mps 608 mmHg 45%
    09:00 +24°C° 0 mm 1 mps 608 mmHg 38%
    10:00 +26°C° 0 mm 2 mps 609 mmHg 32%
    11:00 +26°C° 0 mm 2 mps 609 mmHg 31%
    12:00 +27°C° 0 mm 3 mps 609 mmHg 30%
    13:00 +27°C° 0 mm 3 mps 609 mmHg 30%
    14:00 +26°C° 0.1 mm 3 mps 608 mmHg 34%
    15:00 +26°C° 0.1 mm 4 mps 608 mmHg 37%
    16:00 +25°C° 0.1 mm 4 mps 607 mmHg 41%
    17:00 +22°C° 0.1 mm 3 mps 606 mmHg 50%
    18:00 +21°C° 0.1 mm 3 mps 606 mmHg 58%
    19:00 +19°C° 0.1 mm 2 mps 605 mmHg 66%
    20:00 +17°C° 0.1 mm 2 mps 604 mmHg 74%
    21:00 +14°C° 0.1 mm 1 mps 603 mmHg 82%
    22:00 +12°C° 0.1 mm 1 mps 603 mmHg 90%
    23:00 +12°C° 0 mm 1 mps 602 mmHg 92%

    Day after tomorrow, 28 June, Friday

    Time Temperature Precipitation Wind Pressure Humidity
    00:00 +11°C° 0 mm 1 mps 602 mmHg 93%
    01:00 +11°C° 0 mm 1 mps 602 mmHg 94%
    02:00 +11°C° 0 mm 1 mps 602 mmHg 94%
    03:00 +11°C° 0 mm 1 mps 602 mmHg 95%
    04:00 +10°C° 0 mm 1 mps 602 mmHg 95%
    05:00 +12°C° 0 mm 1 mps 602 mmHg 91%
    06:00 +14°C° 0 mm 1 mps 603 mmHg 87%
    07:00 +15°C° 0 mm 1 mps 603 mmHg 82%
    08:00 +18°C° 0 mm 1 mps 604 mmHg 72%
    09:00 +18°C° 0 mm 2 mps 604 mmHg 62%
    10:00 +20°C° 0 mm 2 mps 605 mmHg 52%
    11:00 +21°C° 0 mm 2 mps 605 mmHg 48%
    12:00 +22°C° 0 mm 3 mps 605 mmHg 44%
    13:00 +22°C° 0 mm 3 mps 605 mmHg 40%
    14:00 +22°C° 0 mm 3 mps 605 mmHg 42%
    15:00 +22°C° 0 mm 3 mps 605 mmHg 44%
    16:00 +21°C° 0 mm 3 mps 605 mmHg 46%
    17:00 +20°C° 0 mm 3 mps 604 mmHg 53%
    18:00 +18°C° 0 mm 2 mps 603 mmHg 59%
    19:00 +16°C° 0 mm 2 mps 603 mmHg 66%
    20:00 +14°C° 0 mm 2 mps 602 mmHg 74%
    21:00 +12°C° 0 mm 1 mps 601 mmHg 82%
    22:00 +9°C° 0 mm 0 mps 601 mmHg 89%
    23:00 +8°C° 0 mm 0 mps 600 mmHg 89%

    29 June, Saturday

    Time Temperature Precipitation Wind Pressure Humidity
    00:00 +8°C° 0 mm 0 mps 600 mmHg 89%
    01:00 +7°C° 0 mm 0 mps 600 mmHg 89%
    02:00 +7°C° 0 mm 0 mps 600 mmHg 88%
    03:00 +7°C° 0 mm 0 mps 599 mmHg 87%
    04:00 +7°C° 0 mm 0 mps 599 mmHg 85%
    05:00 +9°C° 0 mm 0 mps 600 mmHg 76%
    06:00 +12°C° 0 mm 0 mps 601 mmHg 67%
    07:00 +14°C° 0 mm 0 mps 603 mmHg 58%
    08:00 +16°C° 0 mm 0 mps 603 mmHg 51%
    09:00 +20°C° 0 mm 1 mps 604 mmHg 44%
    10:00 +22°C° 0 mm 1 mps 605 mmHg 37%
    11:00 +23°C° 0 mm 1 mps 605 mmHg 34%
    12:00 +24°C° 0 mm 1 mps 605 mmHg 32%
    13:00 +25°C° 0 mm 2 mps 605 mmHg 29%
    14:00 +25°C° 0 mm 2 mps 605 mmHg 31%
    15:00 +25°C° 0 mm 2 mps 605 mmHg 32%
    16:00 +25°C° 0 mm 2 mps 605 mmHg 34%
    17:00 +23°C° 0 mm 2 mps 605 mmHg 44%
    18:00 +21°C° 0 mm 1 mps 604 mmHg 55%
    19:00 +20°C° 0 mm 1 mps 603 mmHg 66%
    20:00 +18°C° 0 mm 1 mps 603 mmHg 72%
    21:00 +14°C° 0 mm 1 mps 602 mmHg 79%
    22:00 +12°C° 0 mm 1 mps 601 mmHg 85%
    23:00 +12°C° 0 mm 1 mps 601 mmHg 86%

    30 June, Sunday

    Time Temperature Precipitation Wind Pressure Humidity
    00:00 +12°C° 0 mm 1 mps 601 mmHg 87%
    01:00 +12°C° 0 mm 1 mps 601 mmHg 88%
    02:00 +11°C° 0 mm 1 mps 601 mmHg 88%
    03:00 +11°C° 0 mm 1 mps 600 mmHg 89%
    04:00 +11°C° 0 mm 1 mps 600 mmHg 89%
    05:00 +13°C° 0 mm 1 mps 601 mmHg 82%
    06:00 +15°C° 0 mm 1 mps 602 mmHg 75%
    07:00 +16°C° 0 mm 0 mps 603 mmHg 68%
    08:00 +20°C° 0 mm 1 mps 604 mmHg 57%
    09:00 +22°C° 0 mm 1 mps 605 mmHg 47%
    10:00 +24°C° 0 mm 1 mps 606 mmHg 36%
    11:00 +25°C° 0 mm 1 mps 606 mmHg 33%
    12:00 +26°C° 0 mm 2 mps 607 mmHg 29%
    13:00 +27°C° 0 mm 2 mps 607 mmHg 26%
    14:00 +26°C° 0 mm 2 mps 607 mmHg 27%
    15:00 +26°C° 0 mm 2 mps 606 mmHg 28%
    16:00 +26°C° 0 mm 3 mps 606 mmHg 29%
    17:00 +24°C° 0 mm 2 mps 606 mmHg 39%
    18:00 +21°C° 0 mm 2 mps 605 mmHg 49%
    19:00 +20°C° 0 mm 2 mps 604 mmHg 59%
    20:00 +18°C° 0 mm 1 mps 604 mmHg 64%
    21:00 +15°C° 0 mm 1 mps 603 mmHg 68%
    22:00 +13°C° 0 mm 1 mps 602 mmHg 73%
    23:00 +12°C° 0 mm 1 mps 602 mmHg 73%

    1 July, Monday

    Time Temperature Precipitation Wind Pressure Humidity
    00:00 +12°C° 0 mm 1 mps 602 mmHg 72%
    01:00 +12°C° 0 mm 1 mps 601 mmHg 71%
    02:00 +11°C° 0 mm 1 mps 601 mmHg 68%
    03:00 +11°C° 0 mm 1 mps 601 mmHg 66%
    04:00 +11°C° 0 mm 1 mps 600 mmHg 64%
    05:00 +14°C° 0 mm 1 mps 602 mmHg 58%
    06:00 +16°C° 0 mm 1 mps 603 mmHg 52%
    07:00 +20°C° 0 mm 1 mps 604 mmHg 46%
    08:00 +22°C° 0 mm 1 mps 604 mmHg 41%
    09:00 +23°C° 0 mm 1 mps 605 mmHg 35%
    10:00 +25°C° 0 mm 1 mps 606 mmHg 30%
    11:00 +25°C° 0 mm 1 mps 606 mmHg 30%
    12:00 +25°C° 0 mm 2 mps 605 mmHg 30%
    13:00 +26°C° 0 mm 2 mps 605 mmHg 30%
    14:00 +23°C° 0.9 mm 2 mps 604 mmHg 44%
    15:00 +19°C° 0.9 mm 2 mps 602 mmHg 57%
    16:00 +16°C° 0.9 mm 2 mps 600 mmHg 71%
    17:00 +15°C° 1.1 mm 1 mps 601 mmHg 76%
    18:00 +14°C° 1.1 mm 1 mps 601 mmHg 81%
    19:00 +14°C° 1.1 mm 1 mps 601 mmHg 86%
    20:00 +13°C° 1.9 mm 1 mps 601 mmHg 87%
    21:00 +12°C° 1.9 mm 2 mps 601 mmHg 89%
    22:00 +10°C° 1.9 mm 2 mps 601 mmHg 90%
    23:00 +10°C° 0 mm 2 mps 600 mmHg 89%
    Show more